Regional Weather Roundup
Issued by NWS

Home | Current Version | Previous Version | Text Only | Print | Product List | Glossary On
Versions: 1 2 3 4 5 6 7 8 9 10 11 12 13 14 15 16 17 18 19 20 21 22 23 24 25 26 27
000
ASUS44 KBMX 300610
RWRAL

ALABAMA REGIONAL WEATHER ROUNDUP
NATIONAL WEATHER SERVICE BIRMINGHAM AL
100 AM CDT SUN APR 30 2017

NOTE: "FAIR" INDICATES FEW OR NO CLOUDS BELOW 12,000 FEET
WITH NO SIGNIFICANT WEATHER AND/OR OBSTRUCTIONS TO VISIBILITY.

THE REMARK "TC" DENOTES TEMPERATURE IN DEGREES CELSIUS.

ALZ001>011-014-016>018-020-300700-
NORTH ALABAMA

CITY           SKY/WX    TMP DP  RH WIND       PRES   REMARKS
MUSCLE SHOALS  PTCLDY    76  64  66 S16G29    29.95F
6HR MIN TEMP:  73; 6HR MAX TEMP:  82;

HUNTSVILLE     MOCLDY    76  67  73 S14       29.99S
6HR MIN TEMP:  75; 6HR MAX TEMP:  84;

DECATUR        PTCLDY    72  66  81 SE10      29.98F
6HR MIN TEMP:  70; 6HR MAX TEMP:  79;

HALEYVILLE     MOCLDY    72  66  81 S12G20    29.99F
6HR MIN TEMP:  72; 6HR MAX TEMP:  79;

GADSDEN        MOCLDY   N/A N/A N/A S5        30.05R
$$

ALZ012-013-022-023-030>036-040>044-300700-
WEST CENTRAL ALABAMA

CITY           SKY/WX    TMP DP  RH WIND       PRES   REMARKS
TUSCALOOSA     CLEAR     75  68  78 S9        29.97F
6HR MIN TEMP:  75; 6HR MAX TEMP:  82;

$$

ALZ015-024>027-033>036-040>044-300700-
CENTRAL ALABAMA

CITY           SKY/WX    TMP DP  RH WIND       PRES   REMARKS
BIRMINGHAM     CLOUDY    75  67  76 S9        30.04S
6HR MIN TEMP:  75; 6HR MAX TEMP:  83;

MONTGOMERY     PTCLDY    71  65  81 E5        30.03R
6HR MIN TEMP:  71; 6HR MAX TEMP:  83;

SHELBY CO ARPT CLEAR     75  68  78 SE9       30.02F
6HR MIN TEMP:  75; 6HR MAX TEMP:  83;

MAXWELL AFB    PTCLDY    71  69  91 S5        30.03R
6HR MIN TEMP:  71; 6HR MAX TEMP:  83;

GREENVILLE     FAIR      72  67  84 CALM      30.03R
6HR MIN TEMP:  72; 6HR MAX TEMP:  81;

$$

ALZ019-021-028-029-037-038-045>048-300700-
EAST CENTRAL ALABAMA

CITY           SKY/WX    TMP DP  RH WIND       PRES   REMARKS
ANNISTON       PTCLDY    76  68  76 S7        30.05R
6HR MIN TEMP:  75; 6HR MAX TEMP:  83;

ALEXANDER CITY CLEAR     73  68  84 CALM      30.06R
6HR MIN TEMP:  73; 6HR MAX TEMP:  81;

AUBURN         CLOUDY    71  67  87 SE6       30.08S
6HR MIN TEMP:  71; 6HR MAX TEMP:  81;

$$

ALZ051>064-300700-
SOUTHWEST ALABAMA

CITY           SKY/WX    TMP DP  RH WIND       PRES   REMARKS
MOBILE         CLOUDY    77  71  82 S21G28    29.96F
6HR MIN TEMP:  77; 6HR MAX TEMP:  78;

BROOKLEY FIELD CLOUDY    78  75  90 S14G22    29.97F
6HR MIN TEMP:  78; 6HR MAX TEMP:  79;

EVERGREEN      PTCLDY    72  69  90 E3        30.01S
6HR MIN TEMP:  72; 6HR MAX TEMP:  79;

$$

ALZ049-050-065>069-300700-
SOUTHEAST ALABAMA

CITY           SKY/WX    TMP DP  RH WIND       PRES   REMARKS
DOTHAN         CLEAR     71  70  96 SE8       30.07F
6HR MIN TEMP:  71; 6HR MAX TEMP:  82;

OZARK          CLEAR     72  68  89 SE3       30.03F
6HR MIN TEMP:  70; 6HR MAX TEMP:  82;

TROY           CLEAR     71  69  93 CALM      30.05R
6HR MIN TEMP:  69; 6HR MAX TEMP:  79;

EUFAULA        FAIR      73  68  84 SE5       30.04S
6HR MIN TEMP:  73; 6HR MAX TEMP:  83;

$$




USA.gov is the U.S. government's official web portal to all federal, state and local government web resources and services.